This is the latest recevied weather packets stored in our database for station/object KC4MCQ-10. If no packets are shown the sender has not sent any weather packets the latest 10 day(s).
| Time | Temp. | Humidity | Pressure | Rain* | Wind** | Luminosity | Snow |
|---|---|---|---|---|---|---|---|
| 1788118622 | 32.22° C | 70% | 1017 hPa | 4.06 mm | 0.45 m/s, 103° | - | - |
| 1788118004 | 32.22° C | 70% | 1017.4 hPa | 4.06 mm | 1.34 m/s, 319° | - | - |
| 1788117393 | 32.78° C | 68% | 1017.3 hPa | 4.06 mm | 0 m/s | - | - |
| 1788116791 | 32.78° C | 68% | 1017.3 hPa | 4.06 mm | 1.79 m/s, 87° | - | - |
| 1788116190 | 32.78° C | 69% | 1017.3 hPa | 4.06 mm | 0.89 m/s, 71° | - | - |
| 1788115590 | 32.78° C | 68% | 1017.5 hPa | 4.06 mm | 2.68 m/s, 163° | - | - |
| 1788114988 | 32.78° C | 68% | 1017.3 hPa | 4.06 mm | 3.13 m/s, 49° | - | - |
| 1788114387 | 32.78° C | 66% | 1017.3 hPa | 4.06 mm | 0.89 m/s, 90° | - | - |
| 1788113785 | 32.22° C | 67% | 1017.7 hPa | 4.06 mm | 1.34 m/s, 131° | - | - |
| 1788113184 | 32.22° C | 65% | 1017.7 hPa | 4.06 mm | 0.45 m/s, 146° | - | - |
| 1788112564 | 32.22° C | 67% | 1018.2 hPa | 4.06 mm | 1.79 m/s, 144° | - | - |
| 1788111964 | 32.22° C | 68% | 1018.2 hPa | 4.06 mm | 0.89 m/s, 134° | - | - |
| 1788111359 | 32.22° C | 67% | 1018.5 hPa | 4.06 mm | 1.34 m/s, 131° | - | - |
| 1788110758 | 32.22° C | 67% | 1018.5 hPa | 4.06 mm | 0.89 m/s, 155° | - | - |
| 1788110158 | 32.22° C | 68% | 1018.7 hPa | 4.06 mm | 0.89 m/s, 163° | - | - |
| 1788109557 | 32.22° C | 69% | 1018.7 hPa | 4.06 mm | 0.89 m/s, 63° | - | - |
| 1788108955 | 32.22° C | 67% | 1018.8 hPa | 4.06 mm | 3.13 m/s, 128° | - | - |
| 1788108353 | 31.67° C | 64% | 1018.8 hPa | 4.06 mm | 0.89 m/s, 129° | - | - |
| 1788107750 | 31.67° C | 67% | 1019 hPa | 4.06 mm | 0.89 m/s, 73° | - | - |
| 1788107138 | 31.11° C | 64% | 1019 hPa | 4.06 mm | 1.79 m/s, 121° | - | - |
| 1788106537 | 31.67° C | 68% | 1019 hPa | 4.06 mm | 2.24 m/s, 148° | - | - |
| 1788105936 | 31.11° C | 69% | 1019 hPa | 4.06 mm | 0.45 m/s, 138° | - | - |
| 1788105335 | 31.11° C | 69% | 1019 hPa | 4.06 mm | 1.79 m/s, 178° | - | - |
| 1788104735 | 31.11° C | 70% | 1019.2 hPa | 4.06 mm | 1.79 m/s, 159° | - | - |
| 1788104116 | 30.56° C | 70% | 1019.3 hPa | 4.06 mm | 1.79 m/s, 132° | - | - |
* Rain latest 24 hours (hover to see other rain measurements)
** Current wind speed in m/s (hover to see current wind gust speed)